STARLINK-1725

decayed
NORAD ID: 46334 Int'l Des: 2020-062 Owner: SPXS Country: US Constellation: starlink
LEOCIRCULAR

关于 STARLINK-1725

正在加载描述...

高度历史

Altitude vs Time

uPlot chart will show altitude changes over time

两行轨道根数

1 46334U 20062K 25044.12641125 .13324878 12377-4 77411-3 0 9990
2 46334 53.0265 267.2117 0003412 231.6288 270.1331 16.41809555246473
Epoch: Feb 13, 2025 • Age: 5141 hours

当前状态

Position data unavailable
发射日期 Sep 3, 2020
运行时间 5 years
衰减日期 Feb 13, 2025
类型 internet

技术详情

分类 Payload
质量 260.00 kg
干质量 248.00 kg
总质量 260.00 kg
长度 0.20 m
直径 2.80 m
跨度 9.00 m
形状 Box + pan
制造商 SPXS
平台类型 Starlink
阶段状态 Reentered
所有者/国家 SPXS/US

大型星座

Loading constellations...